TimeCDT,TemperatureF,Dew PointF,Humidity,Sea Level PressureIn,VisibilityMPH,Wind Direction,Wind SpeedMPH,Gust SpeedMPH,PrecipitationIn,Events,Conditions,WindDirDegrees,DateUTC
12:54 AM,53.1,21.9,30,30.01,10.0,WSW,11.5,-,N/A,,Clear,250,2012-09-12 05:54:00
1:54 AM,52.0,23.0,32,30.02,10.0,West,12.7,-,N/A,,Clear,260,2012-09-12 06:54:00
2:54 AM,48.9,24.1,38,30.03,10.0,WSW,9.2,-,N/A,,Clear,250,2012-09-12 07:54:00
3:54 AM,48.9,23.0,36,30.04,10.0,SW,11.5,-,N/A,,Clear,230,2012-09-12 08:54:00
4:54 AM,48.0,24.1,39,30.05,10.0,WSW,13.8,-,N/A,,Clear,250,2012-09-12 09:54:00
5:54 AM,48.0,24.1,39,30.07,10.0,WSW,10.4,-,N/A,,Clear,240,2012-09-12 10:54:00
6:54 AM,48.0,24.1,39,30.09,10.0,WSW,10.4,-,N/A,,Clear,240,2012-09-12 11:54:00
7:54 AM,50.0,24.1,36,30.10,10.0,WSW,11.5,-,N/A,,Clear,240,2012-09-12 12:54:00
8:54 AM,52.0,25.0,35,30.13,10.0,WSW,16.1,23.0,N/A,,Clear,250,2012-09-12 13:54:00
9:31 AM,53.6,24.8,33,30.12,1.5,WSW,13.8,-,N/A,,Haze,250,2012-09-12 14:31:00
9:39 AM,53.6,24.8,33,30.13,10.0,WSW,13.8,-,N/A,,Clear,250,2012-09-12 14:39:00
9:54 AM,55.0,26.1,33,30.15,10.0,WSW,16.1,-,N/A,,Clear,240,2012-09-12 14:54:00
10:54 AM,62.1,24.1,23,30.16,10.0,West,19.6,25.3,N/A,,Clear,260,2012-09-12 15:54:00
11:54 AM,64.0,21.9,20,30.17,10.0,West,26.5,33.4,N/A,,Clear,270,2012-09-12 16:54:00
12:54 PM,64.9,17.1,16,30.17,10.0,West,29.9,42.6,N/A,,Clear,270,2012-09-12 17:54:00
1:54 PM,66.9,17.1,15,30.18,10.0,WNW,24.2,39.1,N/A,,Clear,290,2012-09-12 18:54:00
2:54 PM,66.9,14.0,13,30.18,10.0,West,32.2,41.4,N/A,,Clear,270,2012-09-12 19:54:00
3:54 PM,68.0,15.1,13,30.18,10.0,WNW,23.0,33.4,N/A,,Clear,290,2012-09-12 20:54:00
4:54 PM,68.0,15.1,13,30.19,10.0,West,21.9,36.8,N/A,,Partly Cloudy,270,2012-09-12 21:54:00
5:54 PM,66.9,17.1,15,30.19,10.0,West,19.6,39.1,N/A,,Partly Cloudy,280,2012-09-12 22:54:00
6:54 PM,64.0,18.0,17,30.20,10.0,WNW,13.8,23.0,N/A,,Clear,290,2012-09-12 23:54:00
7:54 PM,60.8,21.2,22,30.20,10.0,WNW,9.2,-,N/A,,Partly Cloudy,300,2012-09-13 00:54:00
8:54 PM,55.9,21.0,26,30.25,10.0,West,8.1,-,N/A,,Partly Cloudy,270,2012-09-13 01:54:00
9:54 PM,55.0,21.0,27,30.25,10.0,West,9.2,-,N/A,,Clear,270,2012-09-13 02:54:00
10:54 PM,48.0,26.1,42,-9999,10.0,SW,8.1,-,N/A,,Clear,220,2012-09-13 03:54:00
11:54 PM,45.0,26.1,48,-9999,10.0,SW,5.8,-,N/A,,Clear,230,2012-09-13 04:54:00